RH
56 66 67 74 75 83 94 93 97 98 98 99 95 99 90 73 77 85 84 83 81 74 67 60 53 53 58 64 71 70 69 61 56 72 87 82 76 79 84 84 78 74 76 75 74 71 69 67 65 65 60 57 59 57 47 34 32 40 52 58 63 68 72 73 74 74 74 71 67 65 67 69 69 65 67 73 76 77 76 75 81 85 79 71 70 70 66 64 64 62 60 60 66 72 68 65 66
59 69 71 77 79 86 92 88 97 100 97 99 97 98 91 77 78 83 81 79 72 63 57 51 52 55 55 59 58 62 81 77 53 68 82 78 85 86 85 82 74 73 74 73 72 68 67 66 68 66 58 58 56 47 40 37 39 49 58 64 69 73 73 75 75 74 75 73 69 67 70 74 72 68 70 77 78 79 78 78 84 85 80 73 68 69 65 62 63 61 60 60 64 72 69 64 65
62 73 78 83 88 90 88 89 98 98 97 98 97 97 94 88 79 75 73 72 62 49 49 48 52 54 53 59 63 70 85 83 56 64 87 85 89 90 85 78 71 72 72 73 70 69 70 69 69 62 57 56 47 41 42 42 47 56 65 70 73 74 74 75 76 77 78 74 73 72 72 73 71 69 71 79 80 80 79 79 87 86 76 65 63 70 65 61 62 62 64 61 63 71 70 67 68
69 79 85 88 87 87 91 98 99 97 99 95 95 94 93 89 74 71 68 62 56 46 45 50 55 54 57 66 69 74 80 84 69 70 93 88 80 82 79 74 73 74 74 74 72 72 71 69 67 59 54 46 39 43 48 51 59 67 72 76 76 74 73 75 76 77 77 72 71 70 68 71 74 74 74 79 80 78 77 81 94 89 70 56 57 67 65 62 62 62 65 62 66 73 69 70 73
69 76 85 89 88 91 95 99 98 97 98 94 95 94 87 82 72 73 66 57 52 45 46 50 56 54 58 66 65 75 81 85 81 79 92 87 75 76 77 75 74 75 75 74 72 72 70 69 62 51 43 34 37 48 57 63 68 73 77 78 77 75 73 74 73 71 73 71 69 69 71 74 76 75 76 79 79 78 81 89 92 77 60 57 62 66 62 61 60 61 66 68 72 74 70 73 76
71 77 85 87 89 92 95 99 98 96 95 92 96 94 81 74 74 73 59 53 49 44 50 50 53 57 58 64 67 75 77 79 86 85 84 85 80 76 75 74 74 76 75 70 68 70 71 67 55 41 33 30 40 55 66 70 69 74 78 77 75 73 71 71 70 69 71 72 74 77 77 76 74 74 77 79 78 79 84 87 78 62 56 62 66 65 60 59 60 61 67 71 73 74 72 76 77
78 83 87 88 89 91 97 100 96 98 93 87 93 91 81 76 77 70 55 51 51 47 51 52 54 59 62 65 68 71 74 78 83 81 77 85 87 79 77 78 80 83 77 67 65 69 70 60 44 34 29 32 47 63 72 72 72 74 77 76 73 70 69 71 72 72 72 70 74 79 78 77 75 75 78 80 79 80 82 80 73 65 62 62 64 67 66 64 62 63 70 71 70 74 75 75 75
82 83 85 90 96 95 97 97 94 98 91 86 90 88 87 86 77 73 65 55 50 47 49 53 54 63 67 66 70 70 73 77 77 78 80 86 90 88 89 88 86 87 75 64 64 66 63 49 35 31 29 40 58 69 73 74 75 75 76 76 73 72 73 75 75 76 75 72 72 76 77 76 75 75 78 81 80 79 79 77 75 71 64 62 66 73 74 69 63 63 73 71 66 72 74 73 73
81 84 87 94 99 97 94 94 94 94 91 87 87 87 89 85 73 75 73 59 51 47 49 54 56 66 70 68 72 72 75 78 77 81 82 83 88 92 94 88 81 77 67 62 62 54 46 37 32 30 32 50 66 70 71 75 76 75 77 77 75 75 76 77 76 77 76 74 74 75 74 75 77 78 79 78 79 79 77 76 75 73 67 66 69 75 74 71 67 65 71 69 65 70 73 71 68
80 86 90 97 98 97 94 95 97 94 93 86 87 89 86 79 72 73 70 70 68 55 54 59 61 67 70 70 73 74 78 80 80 84 83 84 86 89 92 83 70 63 61 60 54 39 33 33 32 31 40 59 69 69 70 73 75 76 78 77 76 75 76 77 76 77 77 77 77 76 73 74 76 76 77 75 80 80 73 72 74 73 70 68 69 72 72 71 70 68 69 68 67 71 74 70 64
84 90 90 98 98 98 95 96 98 95 92 85 91 90 83 81 76 76 70 73 71 57 58 63 63 65 66 71 74 75 79 79 80 82 82 85 84 87 91 78 61 56 54 48 38 31 31 33 32 37 52 65 68 68 67 71 75 78 79 76 76 74 74 75 73 75 77 78 77 76 74 73 71 71 75 75 80 80 71 70 75 74 71 69 67 68 70 71 70 70 70 69 71 73 73 70 67
90 96 93 98 98 99 94 95 96 93 91 88 94 88 83 82 78 82 76 74 65 53 57 60 63 65 66 72 76 74 74 76 78 80 81 84 84 88 88 70 56 50 41 33 29 30 32 32 37 50 64 68 68 67 66 71 76 79 79 77 76 72 70 71 71 73 77 79 78 77 76 74 73 73 76 78 81 78 70 70 75 74 69 68 67 67 69 70 69 70 70 70 73 73 71 70 69
90 97 97 98 96 98 93 94 94 91 92 89 93 86 81 80 81 86 81 83 73 58 60 60 62 64 66 71 73 70 71 74 76 80 82 84 87 89 80 62 53 45 34 29 29 31 33 37 47 62 69 70 68 67 70 75 76 77 78 77 75 71 70 70 71 76 78 79 79 78 76 74 76 77 77 80 81 77 72 71 73 72 69 67 65 66 67 68 68 67 67 68 71 69 67 65 66
84 89 96 98 96 98 93 96 94 94 96 89 90 84 80 80 81 80 77 85 78 61 58 59 62 64 68 70 71 71 71 73 76 79 81 85 88 87 78 63 53 44 35 30 30 33 38 48 57 66 69 69 68 68 74 77 76 76 75 74 75 75 72 69 72 78 79 78 79 78 76 74 75 76 77 79 81 79 77 72 71 73 74 70 66 65 65 65 64 63 65 67 68 67 65 61 62
74 80 93 98 96 96 91 94 91 93 95 87 87 83 82 80 77 76 76 82 76 60 55 58 60 64 69 69 71 71 71 73 75 78 80 83 85 87 86 74 55 40 34 31 33 37 45 59 64 66 68 67 67 68 73 77 77 76 74 72 75 77 73 70 72 77 79 78 79 77 76 77 77 77 78 80 81 81 78 72 70 74 76 74 71 69 67 65 62 62 65 69 69 68 64 56 60
68 75 95 98 95 96 88 90 90 93 89 83 86 83 84 83 79 80 77 76 69 58 55 56 56 61 65 65 67 69 72 75 75 78 78 81 83 85 87 83 61 40 35 34 36 43 54 63 64 66 66 65 67 67 69 75 77 75 75 72 74 78 75 74 74 76 78 77 77 77 77 77 77 77 79 81 82 82 78 74 72 72 73 72 72 71 70 67 65 65 67 69 64 57 52 52 62
64 73 94 95 94 98 87 85 90 91 85 83 86 82 85 86 82 78 71 69 65 60 56 51 53 58 62 63 66 68 72 74 75 77 77 79 81 81 82 81 71 60 60 54 45 51 65 65 65 67 64 65 67 66 66 73 78 76 76 73 74 77 77 78 78 76 74 71 70 72 74 73 74 74 75 77 78 79 77 74 71 70 69 68 67 67 67 66 64 61 57 51 44 43 52 63 72
58 73 90 94 98 93 76 72 76 78 81 85 84 78 82 86 82 71 68 69 62 63 58 50 53 56 59 62 63 66 70 72 74 75 75 77 77 76 75 74 75 76 80 78 64 61 70 68 68 69 65 66 66 65 65 70 76 74 75 74 75 76 76 78 77 74 71 67 65 67 70 70 71 71 71 71 72 74 73 71 69 68 67 66 64 62 61 59 54 48 42 38 37 47 64 74 78
47 67 86 89 89 74 58 60 64 71 79 82 81 77 79 81 76 69 75 75 63 66 60 49 53 55 58 60 60 64 68 71 73 74 73 74 73 70 70 71 75 77 77 82 77 69 71 71 74 71 66 67 66 66 65 67 70 68 71 72 74 77 75 74 74 73 70 68 66 66 68 68 70 72 71 70 71 72 71 70 69 69 68 67 65 62 60 57 53 53 54 54 54 60 69 76 80
43 63 83 79 72 61 52 58 66 72 77 81 82 78 79 79 73 71 76 75 72 74 61 49 54 54 56 57 58 64 67 70 73 74 74 72 70 68 69 73 76 77 77 81 80 75 75 75 75 71 68 69 66 64 62 65 68 66 67 66 69 74 70 67 69 72 71 70 69 67 68 69 73 75 74 71 70 71 71 70 68 67 66 63 60 58 58 56 57 60 64 65 68 74 79 82 83
42 56 73 67 63 63 56 60 70 75 75 80 83 82 86 82 74 73 72 75 81 76 58 51 54 53 54 54 57 63 66 70 71 72 74 74 72 71 72 76 78 79 81 83 80 76 76 72 68 68 69 68 63 60 59 63 67 65 63 61 65 70 68 63 65 70 71 71 70 67 66 68 71 72 72 71 69 69 68 68 68 67 66 65 62 60 59 59 62 66 69 71 74 79 83 84 84
40 47 54 57 59 60 57 60 70 75 75 78 81 84 87 82 78 74 72 77 81 74 60 52 52 52 53 53 56 61 64 67 67 68 71 74 76 75 75 78 81 82 84 85 77 69 70 67 63 64 65 65 62 59 60 63 65 63 60 58 62 70 69 65 66 70 71 69 67 65 64 66 65 61 62 63 64 65 66 68 68 69 70 70 71 69 70 70 72 74 75 75 75 75 75 77 79
39 44 44 52 54 52 54 59 67 73 74 77 80 82 83 84 85 77 71 72 72 72 62 52 52 52 52 53 55 58 60 62 62 64 66 70 74 76 77 79 81 83 84 81 71 64 65 64 61 62 63 63 62 60 62 66 66 64 60 58 62 68 68 69 72 73 70 65 64 67 67 68 65 59 58 61 66 68 69 71 70 70 69 69 71 73 75 75 75 76 75 76 76 75 75 75 75
32 41 42 48 48 48 53 58 65 71 72 73 75 79 82 86 87 80 73 66 68 72 61 54 55 51 52 54 54 57 58 59 58 59 61 66 72 74 76 79 81 83 81 73 66 64 65 62 59 61 62 61 61 62 66 70 69 67 66 64 66 67 65 68 71 71 69 66 68 73 73 72 70 67 66 70 74 74 73 75 77 76 74 73 73 70 69 70 71 72 73 73 74 75 76 74 74
22 33 38 42 46 46 50 57 63 67 71 73 74 80 84 82 82 84 77 67 69 71 62 58 56 51 52 53 54 57 57 57 56 56 59 64 70 73 76 78 78 80 76 68 65 65 64 60 59 60 61 61 62 64 68 71 72 72 71 71 74 73 70 70 71 71 69 68 71 73 72 72 72 71 72 74 76 76 78 80 82 82 82 82 80 73 67 65 65 68 71 72 73 74 75 72 72
15 27 37 39 44 47 49 55 60 65 69 73 78 84 85 76 78 86 78 70 70 68 64 62 59 53 52 53 54 56 55 54 54 54 59 62 67 72 74 76 74 74 72 68 69 67 63 62 61 61 62 64 65 65 67 71 74 74 72 74 78 78 77 76 77 76 72 70 71 69 68 67 68 67 67 70 75 80 84 85 85 84 84 84 83 80 74 71 70 72 75 75 75 77 78 74 72
11 23 39 43 42 45 51 52 56 66 65 70 81 87 86 74 80 91 80 75 71 64 64 61 59 55 50 52 54 54 52 50 51 53 56 60 65 70 72 73 71 70 70 71 74 69 66 65 63 62 64 69 70 70 71 72 74 74 73 76 79 80 80 79 79 80 78 76 73 69 68 67 67 64 62 67 73 81 85 83 81 80 80 81 81 81 82 82 81 81 80 79 79 79 78 76 73
9 15 31 45 46 45 51 52 57 66 64 70 79 86 86 78 84 88 80 83 75 64 67 61 58 55 48 51 53 53 51 48 50 50 53 57 62 66 69 70 67 68 70 73 77 73 72 69 65 66 68 73 75 75 78 76 76 77 74 75 78 81 81 81 83 83 82 80 78 74 71 72 72 69 70 72 72 76 79 78 78 77 77 81 83 83 85 85 81 83 83 81 81 79 77 76 76
10 12 20 37 52 55 51 53 59 61 65 69 70 82 89 82 84 82 76 83 75 64 67 63 61 57 49 50 52 52 49 47 47 46 48 52 57 63 66 66 63 65 69 76 79 76 77 74 69 72 74 79 78 75 80 79 80 81 74 73 78 81 82 84 85 85 82 78 79 77 73 75 74 73 76 77 75 74 74 76 77 77 77 83 87 83 84 84 81 81 82 80 79 78 77 75 75
10 13 17 25 43 56 50 51 58 57 66 63 59 85 95 82 81 82 77 76 71 66 63 62 61 55 49 49 51 49 46 45 44 42 45 48 54 59 60 61 60 62 68 78 82 79 82 81 75 78 80 82 79 77 79 77 81 82 75 77 82 82 85 84 80 81 81 74 75 78 74 73 71 71 73 75 77 75 74 76 78 76 74 78 80 76 78 82 81 79 79 79 77 76 75 74 75
12 12 18 22 32 48 47 49 58 60 67 57 54 87 95 80 80 84 79 71 70 69 64 63 59 53 49 47 48 46 43 43 41 41 43 46 51 54 55 56 56 59 63 73 81 79 82 83 79 83 86 83 81 82 80 79 84 84 79 83 85 84 88 85 72 70 75 72 73 76 74 72 70 69 70 72 74 74 74 76 76 73 71 72 69 67 73 77 76 75 77 77 76 76 75 74 75
13 13 20 23 24 40 48 48 56 63 67 54 57 87 88 77 80 81 78 73 71 69 65 63 57 52 47 43 44 43 41 39 39 41 42 45 48 49 51 52 54 56 58 69 78 77 78 82 80 83 87 84 82 82 82 86 89 84 81 84 85 84 86 81 67 63 69 70 71 72 72 72 70 70 73 73 74 76 75 72 70 67 67 68 66 66 74 79 77 76 77 77 76 76 75 75 75
15 15 20 22 21 42 55 49 51 58 64 55 58 82 84 77 80 77 76 76 73 67 62 60 56 52 45 41 42 40 39 37 38 41 39 43 45 46 48 49 53 54 57 68 75 74 76 80 78 78 85 84 83 84 83 88 87 81 83 86 85 84 82 76 65 63 66 67 69 68 68 71 70 71 74 73 72 74 73 69 66 66 68 69 68 69 75 80 80 79 77 75 75 74 74 74 74
19 16 19 19 18 42 58 51 49 54 60 56 55 72 77 75 78 78 78 77 75 68 61 59 57 51 43 41 41 39 39 35 38 40 37 42 43 43 46 47 52 54 60 69 71 72 73 78 75 72 83 83 81 86 86 88 85 79 86 88 84 84 83 76 66 64 64 64 66 63 63 68 70 70 69 69 70 69 66 66 68 69 72 71 66 67 71 75 76 77 76 73 74 73 74 76 74
20 17 19 17 15 35 51 47 51 53 52 54 57 66 72 73 75 79 81 77 76 72 62 59 59 53 43 40 40 40 40 36 38 40 36 41 42 41 43 46 51 54 62 69 68 70 71 75 74 70 81 80 75 85 88 88 84 78 85 87 81 80 80 78 71 65 63 62 63 62 62 64 66 65 64 66 69 68 65 65 67 69 71 69 63 62 67 70 71 71 71 71 75 75 74 75 72
15 15 17 16 13 29 44 42 46 47 48 54 59 67 76 77 74 76 82 79 77 77 70 67 68 61 48 41 41 40 40 38 38 38 37 40 41 40 42 46 52 55 63 68 67 69 70 74 76 71 76 74 70 81 85 86 82 77 82 81 78 78 76 79 77 69 67 64 61 62 64 64 64 64 67 69 67 67 67 64 63 66 69 67 60 59 62 66 69 69 67 68 72 73 72 72 70
11 12 13 14 10 20 38 42 40 38 48 57 58 70 77 77 75 72 79 82 80 83 81 78 74 65 53 46 45 42 40 40 38 38 37 39 41 39 42 47 51 56 63 67 67 68 68 72 76 72 69 64 61 68 74 81 77 69 75 77 76 77 73 75 75 72 73 70 63 60 64 66 64 63 67 69 66 67 67 62 60 62 66 68 64 62 61 63 69 70 68 69 71 73 73 73 70
10 10 11 13 9 18 35 41 37 32 46 55 55 72 76 72 75 72 77 84 83 85 82 80 76 65 55 51 50 45 40 40 39 38 38 39 41 39 43 47 50 56 62 67 67 67 67 69 72 68 61 55 52 54 60 71 70 61 66 71 72 73 70 69 70 70 73 71 64 59 62 65 64 64 68 68 68 70 68 65 63 59 63 70 70 66 64 64 68 68 68 71 72 72 73 71 68
10 9 12 13 10 25 37 32 30 29 42 51 51 67 73 69 72 72 78 82 80 81 76 76 75 64 55 52 52 50 45 42 39 39 39 39 41 39 41 47 51 55 60 65 67 66 66 67 69 64 57 53 49 48 53 60 64 64 66 66 69 71 68 70 70 69 70 65 62 63 64 63 61 64 69 69 70 70 68 65 63 60 62 70 70 65 63 63 65 66 68 71 70 68 69 68 67
9 8 13 15 11 29 42 32 28 27 37 47 48 58 64 67 73 73 75 76 77 81 75 73 72 65 59 54 53 51 48 47 43 40 40 40 41 39 41 47 52 55 58 62 65 65 65 67 68 61 53 53 50 47 51 56 60 72 75 69 71 73 71 75 73 71 71 64 60 66 66 61 58 61 64 66 68 68 65 62 62 63 62 67 67 62 61 62 63 65 69 70 65 65 67 65 64
10 8 13 16 12 23 35 32 26 23 34 42 47 65 70 67 77 79 74 73 77 83 80 78 74 70 69 63 58 55 51 50 46 41 40 40 41 40 42 46 50 54 57 59 61 62 64 68 69 57 47 53 54 47 49 56 62 75 81 75 75 76 74 76 74 72 73 66 60 62 62 59 57 59 58 59 64 66 64 62 64 64 60 63 67 63 61 62 64 68 71 68 65 67 66 64 64
10 9 12 15 14 17 21 22 21 27 42 41 47 77 82 67 71 76 73 72 77 84 86 85 81 77 77 71 63 61 56 51 49 45 40 41 43 42 43 46 49 54 57 58 59 60 63 70 68 54 45 50 53 50 53 60 65 73 79 76 76 75 73 75 74 71 70 66 63 61 61 63 61 59 59 60 62 62 61 62 63 63 61 63 66 63 60 60 65 71 72 67 67 69 65 63 66
11 11 11 13 15 15 18 20 22 33 47 42 37 63 84 77 69 67 65 69 78 86 88 87 86 83 82 78 69 65 60 51 51 51 42 41 44 43 44 46 49 53 56 59 60 61 63 67 67 55 46 47 48 53 64 68 66 70 75 75 76 74 70 75 77 73 71 70 69 66 64 68 68 65 65 64 63 63 62 62 62 63 64 65 64 63 59 58 63 69 71 68 66 66 65 65 63
12 10 10 13 14 14 16 21 23 24 35 43 31 41 78 85 70 60 57 67 83 87 84 83 85 84 82 81 75 68 63 54 52 53 45 41 45 45 45 46 49 52 56 60 61 64 63 61 62 56 48 44 42 51 66 70 66 67 72 74 75 74 72 77 78 76 77 73 72 73 68 69 72 68 68 66 66 69 67 65 66 65 66 66 65 66 65 67 72 71 68 70 69 64 64 66 63
10 8 9 12 11 11 12 16 21 14 24 47 37 35 70 81 68 63 58 68 86 86 79 79 83 84 81 80 75 68 64 58 53 52 47 42 44 46 46 47 49 51 56 60 61 66 66 59 55 53 48 43 40 48 59 66 65 62 67 73 73 76 77 79 79 78 80 76 74 78 72 69 72 72 70 67 69 72 69 68 70 68 66 65 67 71 72 74 79 76 67 66 68 63 62 66 64
8 8 10 10 10 11 11 13 20 15 19 38 32 30 62 75 68 69 68 72 82 79 75 76 80 82 79 76 73 68 65 60 55 51 48 45 45 47 49 48 50 51 55 59 60 64 65 62 56 48 45 43 42 46 49 57 64 60 62 70 74 78 79 79 80 81 81 76 76 81 75 68 72 77 72 68 72 72 67 68 67 66 65 63 67 74 75 76 77 76 70 65 64 60 59 64 63
10 11 11 12 12 12 14 18 24 24 24 27 20 20 50 69 66 63 64 64 68 72 74 76 80 81 79 76 72 70 66 60 59 55 51 49 48 49 51 50 50 51 54 57 59 60 60 62 58 46 43 45 43 45 43 45 55 58 57 63 70 74 77 77 77 80 80 75 75 81 80 69 69 77 72 68 72 67 64 64 60 64 67 63 68 73 77 82 80 74 70 65 61 57 57 60 60
11 13 12 16 21 18 18 25 31 34 32 26 15 15 40 66 67 58 53 51 55 65 71 74 79 79 79 77 71 70 69 66 67 63 58 55 52 49 51 52 52 52 54 55 56 58 57 58 57 48 44 46 44 43 42 37 43 50 51 57 62 66 73 75 71 75 78 74 73 78 79 72 68 72 69 67 69 63 62 63 59 65 68 64 70 74 76 83 82 73 66 62 59 56 56 55 55
12 14 16 24 32 30 26 28 32 33 32 24 13 21 46 62 59 51 48 48 52 59 64 67 71 73 76 75 69 69 70 70 69 64 61 59 54 50 50 52 53 51 54 55 54 56 56 56 57 51 44 44 42 42 43 38 36 43 47 51 55 61 73 75 69 72 76 73 73 71 69 68 66 65 63 63 65 61 61 63 60 64 67 68 74 76 76 80 80 71 61 59 60 60 60 54 52
14 15 19 28 34 35 32 31 31 31 32 22 10 29 58 61 53 49 48 50 50 53 60 62 61 64 68 69 69 69 68 68 67 64 64 64 59 53 51 52 52 51 53 53 53 55 56 56 59 57 49 45 41 38 42 42 37 39 44 47 52 60 73 77 70 72 75 74 73 67 63 64 63 62 62 63 62 60 61 63 62 63 64 67 72 73 74 78 78 73 66 64 62 60 62 57 53
14 12 16 25 27 31 34 32 32 32 30 19 13 43 76 77 69 60 51 51 50 49 55 59 57 56 59 62 65 67 67 67 66 66 67 67 62 56 53 53 53 52 53 52 52 54 56 56 59 61 56 49 41 35 38 44 44 42 42 45 49 55 68 77 74 72 74 73 70 67 66 65 61 62 66 64 60 59 61 62 62 64 64 64 66 66 70 74 74 75 73 68 64 59 59 56 53
15 10 15 23 22 25 29 25 24 24 24 25 35 62 81 78 75 69 55 49 48 46 49 57 60 57 59 64 64 64 66 66 66 66 67 67 63 58 54 54 55 55 55 53 53 55 57 58 61 65 62 53 43 35 36 43 47 46 44 44 47 50 60 74 78 74 70 66 62 62 64 65 62 64 70 69 62 61 64 60 59 64 64 63 65 64 68 71 69 71 69 64 65 63 57 55 54
21 15 17 20 14 16 23 24 20 17 23 41 61 74 76 72 76 79 67 51 46 46 47 58 66 61 60 62 62 65 67 67 68 68 67 66 65 62 57 55 59 61 59 55 55 56 56 57 60 66 69 65 52 38 33 39 45 48 46 44 46 46 51 65 76 75 66 58 56 57 59 65 67 65 70 73 67 66 66 59 56 61 62 62 64 63 66 69 66 65 64 62 66 66 57 53 53
21 18 15 15 13 13 20 26 27 21 26 48 68 71 72 76 79 79 69 52 48 52 55 61 68 67 65 64 64 68 72 72 71 68 69 71 73 75 69 62 62 65 62 58 57 57 57 58 59 61 64 69 66 49 36 35 40 45 46 44 47 47 44 53 65 70 68 62 57 55 55 63 68 66 69 75 73 72 70 60 55 58 60 61 61 60 63 63 60 61 62 63 67 67 59 53 52
14 15 12 15 19 21 22 24 28 27 29 54 77 73 67 73 71 63 55 49 49 55 58 60 65 70 72 72 75 79 81 80 75 73 79 83 81 80 75 67 65 67 65 62 60 59 58 59 61 60 54 56 66 65 55 44 39 41 43 42 45 48 44 46 53 59 68 68 59 56 55 58 67 71 73 77 77 72 65 61 59 57 57 61 61 59 61 61 59 59 60 61 65 67 63 57 56
13 12 11 14 19 23 23 20 24 26 30 60 90 89 82 85 78 60 49 47 52 57 59 57 60 67 69 70 77 84 88 85 77 78 86 84 78 75 73 70 68 67 67 65 61 59 58 57 59 62 57 51 54 61 64 60 49 42 42 40 41 46 46 46 48 51 59 63 61 62 59 56 64 75 79 79 79 73 61 56 61 58 54 58 60 59 61 61 60 61 59 58 62 66 64 60 59
16 16 14 15 15 17 18 17 19 19 28 63 93 95 90 89 87 77 59 50 55 58 60 60 59 62 64 67 71 79 88 88 81 83 89 88 86 83 80 76 70 67 67 66 64 62 61 59 60 63 62 57 52 52 58 64 60 51 47 41 36 40 44 46 49 51 52 57 64 66 62 58 62 72 80 81 80 78 67 57 56 56 52 52 54 57 59 59 59 61 61 57 58 62 62 62 63
14 15 14 15 16 17 21 25 23 13 21 55 82 93 87 72 75 82 65 51 53 56 58 61 61 60 62 67 72 77 85 89 88 92 96 97 95 90 87 85 79 75 74 73 70 67 64 62 63 64 65 62 57 56 59 63 68 66 58 49 41 39 41 43 50 59 60 60 66 68 65 65 65 66 71 77 80 82 76 63 54 52 52 50 49 51 55 56 57 60 60 58 58 60 59 59 61
Wind_Speed
15 13 11 10 7 8 6 1 0 1 0 2 1 0 1 0 3 2 4 5 1 5 20 12 13 15 12 11 14 18 16 5 7 5 7 16 27 27 25 26 27 28 27 26 25 23 22 20 19 18 16 15 14 13 13 11 11 11 12 11 11 10 10 9 9 10 9 9 8 8 9 11 11 11 12 12 13 12 12 12 12 14 14 15 17 17 17 18 19 19 18 18 18 18 17 17 19
14 12 11 10 6 6 3 3 0 0 1 2 1 1 1 2 2 4 6 5 2 8 13 12 22 21 22 18 18 21 18 10 20 21 23 30 29 25 26 27 28 29 27 25 24 23 22 20 20 18 16 14 13 13 12 11 11 11 11 11 10 9 8 8 8 9 8 9 8 8 10 11 11 11 12 13 13 13 13 14 13 14 15 15 17 18 17 18 19 19 18 19 19 18 18 18 19
12 9 8 7 4 2 0 1 1 1 0 1 1 1 0 2 4 5 7 6 7 14 15 19 20 18 23 18 17 17 10 18 36 38 34 32 28 26 27 27 28 28 27 25 24 23 23 21 19 17 15 14 13 13 12 10 11 11 11 11 9 8 8 7 8 9 8 9 9 9 10 11 11 11 12 13 13 13 13 14 14 15 16 16 18 19 17 17 18 18 18 19 19 19 19 19 20
10 8 4 2 2 1 0 0 1 0 0 1 0 2 2 4 5 3 5 11 11 16 21 20 17 16 25 19 15 20 13 20 38 41 33 30 30 30 29 29 28 27 26 24 24 24 23 21 19 17 15 14 13 12 11 11 11 12 11 10 9 8 8 8 9 9 9 9 10 10 10 11 11 12 13 13 14 14 14 14 16 17 18 17 18 19 18 17 18 18 17 18 19 19 20 20 20
8 8 6 8 4 1 1 1 0 1 2 1 0 3 4 6 3 2 5 13 13 15 21 19 15 18 26 18 12 16 18 23 30 34 33 30 31 31 30 28 28 27 26 24 24 24 22 21 19 17 15 14 13 12 12 11 12 11 10 10 9 9 9 9 9 9 10 10 11 11 11 12 12 13 14 14 14 14 14 15 17 17 16 17 17 18 18 17 18 18 17 17 19 20 20 21 22
8 5 3 5 4 1 1 1 1 2 3 1 1 3 5 6 1 3 7 14 15 16 22 21 18 21 22 18 19 19 23 25 25 30 34 33 30 30 30 28 28 26 25 24 23 23 22 20 19 17 15 13 13 12 12 12 11 10 10 10 9 10 10 10 10 11 12 12 13 13 13 13 13 14 14 14 15 14 14 15 16 15 15 16 17 17 17 18 19 19 18 18 19 20 21 22 23
6 3 1 3 2 1 0 1 2 3 2 1 1 3 4 3 7 0 7 13 15 19 26 25 23 21 15 17 22 20 21 25 30 32 35 34 30 29 29 28 27 25 24 24 23 23 22 19 18 16 15 13 13 13 12 11 10 10 10 10 10 10 11 11 12 13 13 13 14 14 15 14 14 15 15 15 16 15 15 16 15 14 15 16 17 17 17 18 19 19 18 19 21 21 22 24 23
3 2 0 2 1 0 1 2 1 2 1 2 2 3 5 11 8 3 2 7 10 17 25 24 25 20 14 19 19 19 21 25 34 34 34 34 31 29 28 28 27 25 24 24 23 22 21 19 18 16 14 13 13 13 12 11 10 11 11 11 11 11 12 13 14 14 14 14 15 16 16 16 16 16 16 16 16 16 16 16 15 15 15 16 17 18 18 18 20 20 19 20 23 23 23 24 23
4 2 2 1 1 0 2 1 1 1 2 1 3 4 9 8 2 3 1 3 7 17 24 22 24 21 17 22 21 24 26 28 35 35 33 32 30 30 28 27 27 27 26 25 23 22 21 19 17 15 14 13 13 13 12 11 11 11 12 12 12 12 13 14 14 15 15 16 17 17 17 18 18 18 17 17 17 17 16 16 16 15 16 17 18 19 18 19 21 21 20 22 24 24 23 24 23
4 2 1 1 1 1 1 0 0 0 3 2 4 5 7 5 6 2 5 7 6 13 26 25 25 26 22 20 21 27 32 33 35 33 32 31 29 28 27 25 26 28 27 26 23 22 21 18 17 15 14 13 13 13 12 11 12 12 12 13 13 13 14 15 15 15 16 17 18 18 18 19 19 19 18 18 18 18 17 16 16 16 16 18 19 19 19 21 22 22 22 24 24 24 23 23 23
1 4 0 1 1 2 2 1 1 1 2 2 4 3 4 6 4 5 11 10 7 15 27 26 22 28 26 19 22 30 34 35 33 32 32 31 30 28 26 25 26 28 27 26 24 22 20 18 16 14 14 14 13 12 12 12 12 13 13 13 14 14 15 15 16 16 17 18 18 18 18 19 19 19 19 19 18 18 18 17 17 17 18 19 20 20 21 22 23 24 24 24 23 23 24 24 23
1 2 0 1 2 2 2 2 1 2 1 2 4 2 3 7 4 3 11 7 9 19 22 20 20 26 21 15 24 32 33 32 31 32 32 31 31 30 26 25 27 26 26 25 23 22 20 18 16 15 15 14 13 13 12 13 13 13 13 14 14 15 16 16 16 17 18 18 18 18 18 19 19 19 19 19 19 19 18 19 19 19 19 20 20 21 22 23 24 25 24 24 23 23 24 23 22
3 1 0 2 2 1 1 1 1 2 2 2 3 3 3 6 5 7 12 8 4 13 20 21 26 26 18 17 27 32 32 31 31 32 33 33 31 29 26 26 27 25 25 24 22 20 18 17 17 16 16 14 14 13 13 14 13 13 13 14 15 15 16 16 17 17 18 18 17 17 18 19 19 19 19 19 20 20 20 20 20 21 21 21 21 22 24 25 25 25 24 24 23 23 23 22 21
7 6 1 1 1 2 1 1 2 1 1 3 5 5 4 5 7 10 14 7 6 10 21 24 29 27 21 22 24 29 31 30 31 31 31 31 30 27 25 26 26 24 23 22 20 18 17 17 17 17 16 15 14 14 15 14 14 14 14 14 15 15 16 17 17 18 18 17 17 17 18 20 20 19 19 19 20 21 21 21 21 21 22 22 22 23 24 25 24 23 23 23 22 22 21 21 21
9 8 1 2 2 1 1 1 1 2 2 3 5 7 7 7 10 11 12 6 1 11 22 25 25 20 19 19 20 31 34 32 31 29 30 29 27 27 25 24 24 24 22 21 19 17 17 17 17 16 15 14 14 15 16 15 15 15 15 15 15 15 17 18 18 18 18 17 18 17 18 19 19 19 19 20 20 21 22 22 22 21 22 23 23 22 23 23 23 22 22 22 22 21 20 20 21
11 6 2 1 2 3 1 1 1 1 3 4 7 9 7 6 6 5 6 6 6 12 22 23 16 16 23 23 27 36 35 34 33 29 30 29 29 28 25 23 22 22 21 20 19 17 17 17 17 16 15 14 14 15 16 17 16 15 15 15 16 16 17 18 18 18 18 17 17 17 18 18 19 19 20 20 20 21 22 22 22 22 23 24 23 22 21 21 22 22 22 22 21 20 20 20 21
14 6 1 1 3 3 1 3 2 3 5 5 7 7 5 3 3 4 6 8 10 12 16 19 18 22 27 28 34 36 31 33 34 31 30 30 31 29 27 24 21 20 19 17 17 18 17 16 17 16 15 14 14 16 16 17 16 15 16 15 16 16 17 18 17 18 18 18 17 17 18 19 19 20 21 21 22 22 22 22 23 23 23 24 23 23 22 22 22 22 22 22 21 22 23 23 21
12 4 1 0 1 2 3 3 3 6 6 6 7 6 6 4 4 7 7 7 10 11 12 19 25 25 27 33 36 34 32 32 34 34 31 31 31 30 29 25 21 21 21 17 14 16 17 16 16 15 15 14 14 16 16 17 16 16 16 16 17 17 17 17 17 18 18 19 18 18 18 20 21 21 22 22 23 23 23 23 24 24 24 24 24 24 24 23 23 23 23 22 23 24 24 23 21
9 3 2 1 4 5 3 6 7 7 8 8 8 8 7 5 5 6 4 4 8 6 10 22 27 28 33 36 35 34 33 31 33 35 33 31 30 30 30 26 24 24 24 20 15 14 16 16 16 15 15 15 15 16 15 16 16 16 16 16 17 17 17 16 17 18 18 19 18 18 19 20 22 21 22 22 23 23 23 23 24 25 24 24 24 24 24 23 23 23 22 22 22 22 21 20 19
4 4 3 3 6 7 2 12 12 12 14 10 8 8 8 5 4 5 4 5 6 3 8 22 27 33 36 35 36 35 33 31 31 32 32 31 29 30 29 27 27 25 24 21 17 15 16 16 16 15 15 15 15 15 15 15 16 16 16 16 16 17 17 17 18 18 19 19 18 19 19 20 22 21 21 21 22 23 23 24 25 26 25 24 24 24 24 23 22 21 21 22 22 20 18 17 15
4 3 3 4 7 5 3 16 17 17 17 12 11 9 7 7 6 6 7 6 3 3 6 23 31 35 37 36 36 34 33 32 31 30 30 29 28 28 27 27 28 27 25 22 18 17 17 16 16 16 15 15 15 15 15 16 16 16 17 17 17 18 18 18 18 19 19 19 19 19 20 21 22 22 22 22 23 24 24 25 25 25 25 24 23 23 23 22 20 19 19 19 18 17 15 14 13
6 5 9 11 10 3 7 17 19 19 18 15 13 9 7 8 8 8 8 5 4 5 8 25 34 36 37 36 35 33 33 31 30 29 27 28 27 26 25 26 27 27 25 21 18 17 17 16 16 16 16 16 15 15 16 16 17 17 18 18 19 19 18 18 18 19 19 20 21 21 20 21 22 23 23 24 24 23 24 24 24 23 24 24 23 22 21 19 18 16 15 15 15 15 14 12 11
5 4 11 15 12 6 11 18 19 20 20 16 11 10 11 9 7 7 7 7 8 8 13 26 30 34 36 35 34 32 31 29 29 28 27 28 27 25 25 25 26 25 23 20 18 17 17 17 16 16 16 17 16 15 16 17 17 17 18 18 19 19 19 18 17 17 19 20 21 20 20 21 21 22 23 23 21 20 20 21 21 21 21 21 21 20 19 17 16 14 13 12 11 12 11 10 9
8 7 10 14 14 9 13 19 18 18 17 17 15 14 13 9 6 6 6 9 9 8 19 27 26 32 33 31 32 31 30 28 27 27 27 26 25 26 25 25 24 23 20 18 18 18 18 18 16 16 16 17 17 16 17 17 17 17 18 17 17 18 18 18 17 16 17 18 18 18 18 19 19 20 20 19 18 18 18 18 18 18 18 17 17 17 17 17 16 14 12 11 10 10 7 7 8
6 9 12 14 14 12 14 18 18 16 14 18 18 13 10 11 9 4 6 9 9 12 23 24 25 31 30 30 31 30 29 27 26 26 26 24 24 26 25 25 24 21 20 18 19 20 19 18 16 16 17 17 16 16 16 16 16 17 17 16 16 17 18 18 17 17 16 17 17 16 16 17 16 16 17 17 17 17 16 16 16 16 16 15 15 15 15 15 15 14 13 13 12 11 9 9 10
6 12 17 15 13 15 16 18 19 15 14 18 16 10 8 13 11 3 5 9 10 16 22 23 26 28 29 30 29 30 29 27 27 25 24 25 25 25 24 24 23 21 18 18 20 20 19 17 16 16 17 17 17 16 15 15 17 17 16 16 17 17 17 17 17 17 16 16 17 17 16 17 16 15 16 17 17 17 17 17 16 15 15 14 14 15 16 15 14 14 14 15 12 10 11 10 10
6 13 23 20 18 19 18 18 19 17 14 16 13 9 9 11 7 1 5 9 11 15 19 24 27 26 28 30 29 29 28 27 27 25 25 26 25 25 25 24 23 21 18 19 21 20 19 18 17 16 16 17 17 16 15 15 17 18 18 19 19 18 17 18 17 17 16 16 16 17 16 16 16 16 16 16 16 17 17 17 16 16 16 15 15 15 16 15 14 14 14 14 11 9 10 10 8
13 4 16 23 22 18 20 17 18 17 11 15 17 12 9 7 2 2 9 8 10 16 19 24 25 23 26 28 29 28 26 26 27 26 26 27 26 25 25 24 23 22 19 19 21 21 20 19 18 17 16 16 15 15 15 16 17 17 17 18 18 17 16 16 16 16 16 16 16 17 16 15 15 16 16 16 16 16 16 16 15 15 16 15 14 13 13 13 14 14 13 12 10 9 10 10 8
14 9 5 18 18 13 20 19 18 16 11 20 20 11 5 2 3 5 10 10 11 19 21 22 21 21 25 28 28 28 25 26 26 24 25 27 27 25 24 23 24 25 21 19 20 20 19 18 20 19 16 15 14 14 15 17 18 16 15 16 15 14 14 14 14 15 15 16 17 17 17 16 15 16 16 16 16 15 14 14 14 14 14 14 13 12 12 12 13 14 13 12 11 10 9 9 9
11 5 1 8 12 11 19 19 19 15 14 25 15 4 2 1 6 9 8 12 13 19 20 20 20 20 25 28 28 28 26 27 26 24 25 26 26 23 22 23 25 25 22 22 21 20 19 18 19 19 16 15 14 13 14 16 17 15 14 14 13 13 13 12 12 14 15 14 15 16 16 17 16 15 16 16 15 14 13 13 13 13 13 13 14 14 15 15 15 15 14 12 12 10 9 9 9
6 2 1 2 4 10 18 19 19 12 15 26 9 2 5 1 8 11 10 15 14 17 18 18 21 20 24 28 27 27 27 27 24 24 26 26 24 21 21 24 25 24 22 23 23 22 22 19 19 20 16 14 15 13 14 15 14 13 15 14 13 14 13 12 12 14 15 12 13 15 15 15 15 15 15 15 15 14 13 12 12 13 13 14 14 15 17 16 16 16 15 13 11 10 8 9 8
4 3 2 5 3 7 16 19 20 14 15 23 7 4 5 2 9 11 12 17 13 16 18 19 24 22 23 29 26 26 28 25 23 24 24 25 24 20 22 25 24 24 22 23 24 23 21 19 20 23 18 16 16 16 16 16 14 14 15 14 13 14 13 11 11 13 13 11 11 13 14 14 13 13 14 14 14 14 12 12 13 15 15 14 13 14 14 14 14 15 15 13 11 10 9 9 9
3 4 4 6 4 7 12 13 19 21 16 16 6 4 4 3 10 13 13 15 12 14 18 23 26 23 23 28 25 24 27 24 23 25 22 24 25 21 23 26 24 24 21 24 25 22 21 19 19 23 21 17 18 19 18 16 15 16 15 13 13 12 11 11 12 13 13 12 12 11 12 12 12 13 14 14 14 14 13 13 14 15 15 13 12 12 13 13 14 15 14 12 12 11 11 10 9
3 4 4 6 6 9 11 11 16 21 16 11 7 6 5 6 11 14 13 15 12 13 19 22 19 19 23 27 25 25 27 24 25 26 22 23 24 22 24 25 25 24 22 25 25 22 22 19 18 22 22 18 19 21 19 16 15 16 15 13 13 12 12 11 11 12 12 12 13 12 13 13 13 13 15 14 13 14 14 14 14 14 14 13 13 13 14 14 15 14 13 12 13 11 11 10 8
5 6 5 6 6 9 14 12 15 19 15 13 10 7 8 9 12 13 14 16 13 13 19 19 13 16 23 25 24 26 26 24 26 26 23 23 23 23 25 25 25 23 23 26 25 22 22 19 18 21 22 19 20 23 21 19 16 15 15 14 13 12 12 11 10 11 12 12 12 13 14 15 14 14 14 13 13 14 15 14 14 14 14 13 14 14 13 13 14 13 12 13 13 11 10 9 8
8 10 8 7 6 7 14 13 17 19 12 11 11 9 11 11 11 12 15 17 14 12 15 15 11 11 21 24 22 26 26 24 27 27 23 23 23 24 25 25 25 23 24 27 25 23 22 20 19 21 23 21 21 24 22 21 18 16 15 15 14 12 12 12 11 11 10 11 12 12 13 14 14 14 13 13 13 13 14 14 14 14 14 14 14 14 13 12 13 13 13 13 13 11 10 9 7
8 5 7 8 8 6 13 15 17 17 9 6 11 12 12 12 11 12 16 17 14 13 13 13 10 10 19 21 19 26 27 24 27 26 24 24 24 25 25 25 25 24 26 26 25 24 23 22 21 20 22 22 22 23 22 21 20 17 15 14 14 12 12 12 12 12 11 10 11 12 13 13 14 13 12 12 12 12 13 13 14 14 14 14 13 13 12 12 12 12 12 13 12 11 10 8 6
10 7 5 7 7 5 16 18 16 15 9 7 12 14 13 13 11 12 16 14 12 15 16 15 13 12 19 19 16 23 24 23 28 27 25 26 25 25 26 26 25 25 27 27 25 25 23 24 22 20 21 21 22 21 20 21 20 16 15 15 13 11 11 11 11 11 11 10 11 11 12 12 13 13 13 12 11 12 12 12 13 14 13 13 12 13 13 13 12 11 11 12 12 11 9 7 7
9 7 5 6 4 6 14 17 16 13 7 8 13 12 11 12 12 12 14 12 13 18 19 18 16 14 20 21 16 20 21 21 26 28 26 27 28 27 26 27 26 26 28 28 26 25 24 24 22 20 20 21 21 20 19 20 19 14 14 14 12 10 10 10 9 10 9 8 10 10 9 11 12 14 13 12 11 11 12 12 13 13 13 13 12 12 13 14 13 11 10 11 11 9 7 6 7
7 6 4 6 5 10 11 12 17 14 9 11 12 9 8 10 10 10 13 14 13 16 18 17 17 16 19 21 18 20 22 19 22 29 28 27 29 29 27 28 26 26 28 28 27 26 24 23 22 21 21 21 21 20 19 19 18 15 13 12 9 8 9 10 10 9 8 8 9 9 8 9 11 12 12 12 12 11 11 13 12 12 13 13 11 11 13 12 12 12 11 11 11 9 6 7 7
6 8 7 7 3 11 13 14 16 13 12 15 12 6 4 7 10 9 11 13 11 14 15 12 15 15 16 20 20 20 22 21 20 26 29 27 30 31 28 27 26 27 29 28 27 28 25 22 23 22 21 22 21 21 20 19 18 17 14 12 10 9 10 12 11 9 9 9 9 9 9 10 11 11 11 12 12 11 12 12 11 12 13 13 12 12 12 12 12 11 10 11 10 8 6 7 7
5 8 10 9 5 2 7 13 13 8 8 14 12 5 2 5 10 9 9 10 10 13 13 11 15 16 15 20 23 21 23 25 21 22 28 29 30 31 29 28 27 28 28 27 26 28 27 23 23 22 22 22 22 21 20 18 19 19 17 16 14 13 13 13 11 10 9 9 9 8 9 10 10 10 11 11 12 11 12 12 12 13 13 13 13 13 13 13 12 10 10 12 11 9 7 6 4
4 6 8 9 6 4 5 9 10 7 8 14 13 6 3 5 7 8 10 9 10 11 11 12 16 17 17 20 23 23 26 30 25 20 26 31 31 32 31 29 29 29 27 26 26 27 28 26 24 22 22 22 23 22 21 19 20 20 20 18 15 13 12 11 10 10 8 7 8 8 9 11 10 10 10 11 11 10 11 12 12 12 13 13 12 12 13 12 12 10 11 13 12 11 9 6 4
5 8 6 6 7 8 8 8 7 7 9 13 12 6 5 5 7 9 11 11 10 10 10 12 16 19 20 19 22 25 28 31 28 22 25 30 32 32 32 30 30 29 27 27 27 27 27 27 26 24 22 22 23 23 22 21 21 21 21 19 16 14 11 10 10 10 8 7 8 8 9 11 11 11 10 10 11 10 10 12 12 12 12 12 12 11 11 11 11 10 11 12 12 11 11 9 7
8 9 7 5 6 7 4 5 4 4 8 8 10 7 6 3 6 7 8 10 10 12 12 13 16 20 22 22 23 25 27 31 30 27 26 29 32 33 32 31 29 28 28 27 27 27 26 26 26 25 23 22 22 23 23 23 21 21 21 20 17 16 12 10 10 9 8 8 8 8 9 11 12 11 10 10 10 9 10 11 11 12 12 12 12 11 11 11 10 10 10 11 10 10 12 12 9
8 8 10 9 5 4 3 0 2 1 5 6 11 8 7 3 6 7 8 9 10 10 10 12 18 23 24 25 26 25 26 30 30 29 27 25 29 33 32 31 29 27 27 27 27 27 26 24 24 26 24 22 22 22 23 24 22 21 21 20 18 17 14 12 10 9 9 9 9 9 9 10 11 11 10 9 9 9 9 10 10 10 11 11 12 12 12 11 10 9 9 9 9 10 13 13 11
5 7 8 7 5 4 2 2 3 2 2 5 8 8 9 5 6 9 8 9 11 10 9 11 17 23 24 25 27 25 26 28 27 28 27 24 26 31 32 30 29 28 26 26 27 27 27 25 23 24 25 23 22 22 22 23 22 21 22 21 19 18 14 12 11 11 11 11 11 11 10 8 9 10 10 9 9 9 9 9 9 9 11 11 12 13 11 10 10 9 9 10 10 11 12 12 12
6 6 4 4 4 3 1 3 5 3 2 4 4 5 8 3 6 8 6 9 13 12 11 11 13 19 25 26 28 27 25 25 25 27 28 26 25 29 32 31 29 29 28 27 27 28 28 26 24 23 25 25 22 21 22 22 21 20 21 21 20 18 15 13 13 12 11 11 11 11 10 7 8 9 9 9 9 9 9 10 10 10 11 11 12 12 11 10 10 9 10 12 12 11 12 12 13
5 4 3 2 2 1 1 1 1 1 3 5 3 2 4 2 5 9 9 11 13 11 13 15 15 18 22 24 28 29 26 23 25 27 28 27 27 30 34 33 29 30 30 29 28 29 28 26 24 23 24 26 23 21 22 21 21 20 20 21 20 19 17 15 15 13 12 12 12 11 9 7 7 8 9 9 9 9 9 9 9 9 10 12 12 12 12 11 10 10 11 11 11 11 11 11 12
3 3 3 2 2 1 1 0 1 1 3 7 4 4 5 3 5 9 10 11 13 15 16 18 20 20 20 22 25 26 26 24 26 28 28 29 29 30 34 34 30 29 30 29 28 29 29 26 25 24 24 26 25 22 22 22 21 20 20 20 20 20 20 17 17 16 15 14 13 11 9 8 8 9 9 10 10 10 9 9 9 9 11 12 12 11 11 11 11 11 10 10 11 11 10 10 11
4 4 3 3 1 2 3 1 1 1 4 6 3 3 2 1 1 3 8 11 13 17 17 18 21 20 19 22 22 23 25 25 26 28 29 28 27 27 32 35 33 29 29 30 29 30 30 27 25 25 24 26 26 23 22 22 21 21 20 20 20 21 22 19 18 18 17 16 15 12 11 10 10 10 9 10 11 10 10 10 10 10 11 10 10 11 12 12 13 12 10 10 11 10 10 10 11
4 3 1 2 2 3 2 3 4 4 3 3 1 3 2 2 3 4 3 11 11 13 18 21 20 20 18 19 21 22 24 25 26 27 28 28 27 27 29 34 34 29 28 30 30 31 32 29 26 25 24 26 27 24 23 22 21 21 21 21 21 21 22 21 20 19 18 16 16 15 13 12 11 10 10 10 11 11 11 11 10 10 11 10 11 12 12 12 13 11 10 11 10 10 10 9 11
2 3 2 3 3 2 2 3 4 5 3 0 3 6 4 5 5 4 4 7 10 9 15 18 14 13 15 19 21 22 23 24 24 26 28 29 27 27 28 32 34 31 28 29 28 29 32 31 27 26 25 26 27 25 23 22 22 22 21 21 22 21 21 22 22 20 18 16 15 15 14 12 11 11 11 11 11 11 12 12 11 11 10 11 11 11 11 12 12 10 10 11 10 10 10 9 10
3 4 4 3 3 2 1 1 2 2 2 2 5 11 9 5 5 5 7 8 12 10 11 15 14 13 10 7 11 15 19 21 22 23 25 24 23 23 25 29 32 32 29 28 27 27 31 31 27 24 24 25 27 25 23 22 22 23 22 22 22 22 21 21 22 20 19 17 15 15 15 13 12 12 11 11 12 12 13 13 12 12 11 11 11 11 11 11 12 11 10 11 11 10 10 9 9
3 2 1 2 2 2 1 2 1 2 1 2 3 5 5 2 3 10 11 10 13 11 10 11 12 14 17 14 10 7 10 15 18 19 18 17 19 20 21 25 29 30 31 29 26 26 29 30 27 24 22 24 26 27 25 23 22 23 23 23 22 22 21 21 21 20 20 19 17 16 16 14 14 13 12 12 12 13 14 13 12 13 12 12 11 12 12 11 12 12 11 11 11 10 10 9 9
5 2 3 2 3 1 1 2 2 2 2 3 4 3 3 2 2 5 11 11 12 12 9 9 11 14 16 15 13 14 12 9 13 16 15 16 19 20 20 23 27 30 31 31 28 27 30 30 28 26 23 23 26 26 26 25 24 23 23 23 23 23 21 21 20 20 20 20 18 17 17 16 15 15 15 14 13 13 13 13 14 13 13 13 13 13 12 12 12 12 12 12 11 10 10 9 9
3 1 2 1 1 1 2 1 3 3 1 3 5 0 2 1 3 3 6 12 13 12 9 8 13 15 16 17 18 19 16 9 9 11 13 15 17 18 20 22 26 29 30 29 28 27 29 29 27 27 25 24 25 25 25 25 25 24 24 23 24 23 22 21 20 20 19 19 19 18 17 17 16 16 17 16 15 14 14 14 15 14 14 13 14 14 13 13 13 12 12 13 11 10 10 10 10
1 2 1 1 2 1 2 3 4 3 1 4 6 4 2 2 2 3 3 10 13 13 12 11 13 15 16 19 21 22 21 14 6 4 7 12 13 15 19 20 22 25 25 25 26 26 29 29 28 28 28 26 25 25 25 25 24 24 23 22 22 22 23 22 20 20 19 18 19 18 17 18 18 18 18 18 18 17 16 15 16 16 15 14 14 14 15 14 14 13 13 13 12 12 11 11 11
Wind_Direction
113 108 97 88 78 72 81 179 277 47 206 285 276 74 297 233 146 173 120 145 141 208 220 201 106 113 116 113 106 72 49 109 147 111 134 146 149 150 150 151 150 146 145 143 139 135 134 135 137 136 135 130 123 116 107 105 103 103 107 109 113 119 121 119 119 120 120 121 123 124 116 110 114 117 117 117 116 117 119 122 119 113 113 117 118 118 124 127 124 123 123 121 120 119 117 115 113
122 109 103 90 68 59 84 178 85 51 199 281 261 179 318 292 178 173 169 169 154 177 190 129 98 96 97 98 95 76 40 71 122 113 123 139 142 147 151 151 148 144 143 141 138 136 136 138 139 137 135 128 120 113 109 110 108 108 110 111 115 117 115 115 119 119 120 122 123 123 113 108 112 115 116 116 117 118 119 119 117 111 110 114 116 116 121 124 122 122 122 123 125 122 118 116 115
136 118 98 80 74 63 22 133 267 252 160 271 274 245 319 254 212 191 168 151 152 136 112 89 89 89 90 79 74 87 64 90 117 121 126 140 141 147 153 150 146 143 142 141 140 139 139 139 139 137 133 127 121 116 116 116 111 109 107 107 110 108 108 114 119 116 115 116 115 115 111 106 108 114 117 115 115 116 117 115 112 108 105 106 111 114 120 124 122 122 124 125 126 121 119 118 118
144 125 121 186 187 179 280 124 243 312 297 220 314 243 229 242 206 172 130 139 147 114 95 84 79 88 93 91 89 91 87 98 119 126 133 144 143 146 151 147 145 143 142 142 141 140 140 140 139 137 132 128 123 120 120 115 109 106 104 106 107 104 107 112 112 109 108 107 108 109 106 103 105 111 115 112 110 111 115 113 106 102 102 104 111 116 121 125 123 125 127 127 124 120 121 121 121
128 121 166 215 229 172 144 277 284 165 251 183 169 237 225 242 204 106 127 136 130 103 103 100 89 92 88 94 105 101 109 110 120 129 136 144 142 146 147 145 145 144 145 143 141 141 141 140 138 135 132 130 126 124 119 112 109 106 106 108 108 108 108 108 109 109 107 102 102 103 104 106 106 106 107 106 105 107 112 111 103 100 104 106 111 119 123 124 123 127 129 126 123 120 123 124 121
107 91 160 213 236 220 157 276 272 231 246 192 196 253 232 237 349 103 140 118 105 103 107 99 98 95 81 86 94 110 126 121 125 133 137 140 142 145 144 143 144 144 146 144 143 142 141 140 137 135 134 134 129 125 118 113 113 110 111 111 110 110 106 103 107 108 105 102 101 102 104 105 104 102 102 102 102 104 107 106 106 107 110 111 113 120 123 123 123 128 130 125 122 122 125 123 119
87 37 97 173 226 251 342 268 279 264 254 276 239 265 260 340 9 95 137 108 99 102 104 101 104 97 89 99 95 107 125 127 131 136 136 137 140 141 141 143 142 144 146 145 145 142 141 140 138 137 136 136 128 121 118 117 114 112 112 110 109 106 99 97 100 103 102 102 101 102 102 101 101 101 101 101 100 101 103 105 109 112 114 117 118 118 121 122 123 128 129 125 123 124 124 122 120
84 306 77 141 209 36 243 262 266 252 295 329 310 330 6 14 360 276 113 110 112 104 105 109 108 95 96 104 100 112 118 128 133 134 135 136 140 140 143 145 143 146 148 146 145 142 140 140 139 139 139 133 123 120 120 119 113 109 108 108 107 101 96 95 96 99 102 102 100 100 101 101 101 101 101 100 100 100 102 105 108 113 116 118 117 117 121 123 124 127 127 125 126 125 123 122 123
200 267 6 21 196 215 247 260 191 235 305 323 325 11 33 35 131 201 325 76 96 104 105 109 109 99 103 102 102 115 119 130 132 133 135 137 142 144 146 146 146 147 147 146 146 143 141 142 140 139 137 129 123 123 123 120 116 112 110 108 104 102 100 99 98 99 102 101 98 99 101 102 102 101 100 98 98 100 102 106 109 113 115 115 114 116 121 123 125 128 127 126 127 126 123 123 123
216 15 31 301 302 285 272 333 160 340 287 316 23 36 50 96 141 86 65 75 55 92 101 104 105 104 109 104 104 119 125 129 130 133 136 137 140 144 146 147 148 146 146 147 146 145 142 142 139 137 133 128 127 126 124 123 120 116 111 107 104 102 102 101 100 102 102 100 100 102 102 101 100 99 99 99 100 102 104 105 109 112 113 113 114 116 120 122 125 127 127 126 125 125 123 123 121
257 10 66 293 330 308 349 64 136 98 295 0 66 55 52 109 108 50 84 105 133 108 105 105 102 108 110 102 110 125 130 130 132 135 137 141 142 142 145 148 148 145 146 146 146 144 140 139 137 136 132 129 129 126 125 122 118 113 109 107 105 103 100 100 101 103 103 101 102 103 102 100 99 98 97 99 100 101 101 103 108 112 113 112 114 118 120 122 124 126 127 125 124 125 123 122 119
64 352 11 316 308 326 355 48 98 138 140 83 124 104 64 112 104 56 75 84 139 115 111 114 116 116 108 103 120 130 132 131 134 138 141 143 141 142 149 147 144 144 144 143 143 141 138 138 137 136 133 130 129 127 125 119 114 111 108 106 103 102 100 101 103 104 103 103 104 103 103 100 97 97 97 98 99 99 99 103 107 110 111 112 115 117 119 121 124 126 126 125 125 126 124 122 121
157 149 27 305 269 309 335 56 83 113 135 109 123 100 88 115 72 41 64 40 17 102 114 118 124 119 109 120 129 134 135 137 139 140 145 143 140 146 150 144 143 144 141 141 139 137 137 137 136 135 135 133 131 128 123 116 114 111 107 106 103 103 102 103 104 104 104 104 105 104 103 100 96 95 96 97 98 99 100 103 105 107 109 112 114 114 117 120 122 125 124 124 126 127 125 123 124
164 133 169 269 238 267 329 99 147 118 138 120 117 116 103 103 90 81 92 79 356 102 122 126 127 115 115 130 133 139 138 143 143 140 143 142 142 142 143 144 144 142 139 139 136 135 136 135 136 136 136 134 131 125 120 117 113 111 107 106 105 104 103 104 105 104 105 105 104 102 99 97 97 96 97 97 98 101 102 104 106 108 110 111 112 114 117 120 122 123 123 124 127 127 123 122 124
173 129 121 277 332 311 75 52 171 134 146 136 125 123 105 100 117 107 100 116 84 117 124 129 126 116 135 143 141 145 141 144 145 142 140 138 139 137 140 143 141 139 138 138 135 135 135 135 137 135 136 132 128 124 120 118 114 112 109 107 106 106 105 106 108 107 106 105 103 101 99 97 97 98 99 100 101 103 103 104 107 110 112 113 114 116 118 119 121 122 124 126 126 123 120 121 123
177 136 67 307 353 345 57 98 265 153 140 134 129 121 101 91 114 106 94 124 122 117 129 138 136 132 145 141 140 145 142 143 142 143 140 137 139 137 139 140 137 137 136 139 137 137 136 136 136 134 135 132 128 125 122 119 116 115 109 106 108 109 108 109 111 110 108 106 106 105 103 102 101 101 101 102 103 104 105 106 109 112 113 114 116 117 118 118 120 122 124 124 123 120 117 117 118
166 147 59 13 353 329 240 174 216 152 133 130 138 131 113 100 102 109 113 112 103 113 133 142 135 133 139 136 139 143 142 143 139 139 140 138 140 138 139 140 139 132 131 139 138 137 139 138 136 135 135 132 130 128 125 122 120 118 113 111 113 113 112 112 114 114 112 110 109 108 106 105 104 105 105 105 105 106 108 109 111 113 114 115 116 117 118 118 119 120 120 119 118 116 113 113 113
166 146 109 333 276 235 223 191 159 133 134 133 150 152 128 126 128 123 116 91 95 114 129 132 131 131 136 137 139 143 143 144 140 140 141 140 141 140 143 144 140 134 138 150 149 143 143 141 137 136 135 134 133 130 127 125 123 121 118 118 116 115 116 116 118 116 114 113 111 109 107 107 106 106 106 107 108 108 110 111 112 113 113 114 114 115 116 115 115 114 114 113 114 114 113 113 110
181 144 119 208 208 249 235 156 142 132 138 135 144 150 124 121 132 119 110 71 80 97 128 133 131 131 136 140 143 144 144 144 143 144 143 143 145 145 146 146 144 143 149 162 168 153 145 142 138 139 136 135 136 132 129 125 123 120 119 119 116 116 118 120 120 117 115 114 113 111 109 108 107 107 108 110 111 111 111 112 113 113 114 113 113 113 113 112 112 111 110 111 111 109 109 109 109
182 129 139 204 204 274 252 134 135 133 138 135 130 131 108 106 123 110 114 91 69 35 135 138 133 135 141 144 145 145 146 145 146 146 145 145 147 148 148 150 150 149 155 168 173 158 149 146 143 143 139 138 140 135 131 127 123 120 118 116 114 115 118 121 120 119 117 117 117 114 113 111 110 109 111 113 114 114 113 114 114 115 115 114 113 113 113 113 113 112 110 110 109 107 105 107 112
156 152 164 181 186 254 156 133 133 136 140 134 127 124 99 104 118 124 124 100 75 4 126 141 140 143 145 146 146 147 147 147 147 148 148 148 148 150 153 156 155 153 158 169 171 159 154 152 149 147 141 141 142 138 133 128 125 122 120 116 115 116 119 121 121 122 121 121 121 118 117 115 113 112 113 114 113 113 114 114 115 115 115 113 112 110 111 113 113 112 110 110 108 105 103 105 108
138 168 148 151 171 200 154 143 140 142 141 135 134 132 121 118 111 134 140 117 118 55 109 143 145 147 147 148 149 148 148 149 149 150 152 152 150 151 156 159 158 159 163 168 167 161 157 156 153 147 142 142 140 139 133 126 125 123 121 118 118 119 120 122 120 122 123 123 124 120 118 115 114 114 114 113 112 113 112 114 115 116 117 115 113 110 108 108 106 104 102 101 100 98 94 95 96
128 165 138 143 162 168 154 151 148 147 144 143 147 138 133 119 98 146 155 129 115 80 131 147 146 149 149 149 151 151 152 153 153 153 153 152 153 153 156 161 160 162 166 167 165 160 156 156 155 150 144 142 141 140 134 128 127 125 124 120 120 121 121 122 120 121 123 124 125 122 119 117 117 117 117 116 115 116 115 115 117 119 121 120 118 116 114 113 111 107 102 101 101 98 91 91 91
167 159 135 139 151 162 158 154 152 151 149 148 146 136 134 128 116 153 150 133 123 112 145 149 148 151 151 151 153 154 154 155 156 155 154 155 156 155 155 159 156 159 166 164 161 156 155 155 154 152 145 143 143 141 137 132 131 130 130 126 124 124 120 120 119 120 121 123 125 124 123 122 123 124 123 122 121 123 119 117 119 121 124 123 124 124 122 120 118 117 114 112 110 105 106 122 114
189 149 137 130 143 168 163 154 151 148 148 143 137 128 133 143 132 132 140 140 134 133 148 152 154 155 153 154 154 154 157 157 158 156 155 155 155 154 155 155 153 162 169 162 159 155 153 152 150 150 146 146 145 143 143 136 132 132 133 131 130 127 122 120 120 120 119 122 126 126 127 127 128 130 129 127 125 123 119 120 121 119 122 123 121 121 122 121 118 119 120 117 114 113 122 129 117
204 157 137 119 143 174 165 157 151 144 147 139 129 113 122 137 124 99 150 146 137 140 153 158 158 159 156 157 156 157 159 159 159 158 155 154 155 155 156 155 155 166 170 160 157 155 151 150 149 148 146 146 145 147 147 136 132 134 133 132 130 128 125 126 125 124 121 125 130 128 128 129 131 134 133 130 125 122 121 125 127 121 121 123 121 119 121 123 123 124 123 123 129 126 122 118 107
251 161 138 131 154 167 160 160 148 140 149 141 126 111 125 136 116 76 170 151 146 148 159 161 163 166 160 159 159 160 162 161 160 159 157 157 157 155 155 155 156 164 167 158 155 153 152 151 148 148 147 146 146 146 139 131 133 133 132 130 129 129 129 130 131 130 127 129 133 133 133 133 135 136 133 128 126 127 128 130 133 127 122 123 123 123 124 125 126 127 122 124 137 134 122 125 121
303 217 141 144 156 157 155 159 146 140 147 140 126 111 129 141 81 182 172 163 156 152 155 160 166 171 164 160 159 161 164 163 161 161 161 160 157 157 159 158 157 162 168 161 155 154 155 153 149 148 146 145 146 142 133 131 133 132 132 130 128 129 130 133 135 135 135 135 139 141 140 137 136 135 131 130 132 134 136 134 135 132 127 124 123 126 129 124 120 123 123 121 128 127 122 130 131
293 276 159 146 147 149 158 158 151 146 144 144 127 99 123 134 91 146 171 169 155 154 157 164 175 179 169 160 160 165 166 165 164 164 165 161 159 160 160 159 158 163 168 161 156 155 155 155 152 148 145 145 148 142 135 134 134 135 136 129 123 127 131 138 142 144 145 144 144 146 146 145 141 137 136 139 139 140 142 139 140 139 135 133 131 134 135 126 119 120 122 119 118 121 122 132 130
278 282 3 146 144 155 163 156 154 149 151 157 137 86 189 39 135 143 164 168 157 162 169 176 183 180 168 159 163 169 168 169 168 167 166 161 160 161 159 159 160 166 168 159 158 156 153 159 156 150 149 150 152 147 142 140 137 139 138 127 126 133 140 148 150 150 153 150 146 147 149 148 146 143 142 145 146 146 146 145 148 146 143 141 138 139 139 135 134 128 124 124 124 124 119 127 132
262 201 45 207 166 161 161 154 156 148 160 172 158 76 184 179 155 150 157 164 156 164 176 186 186 182 168 162 169 172 170 172 170 168 164 159 162 163 161 160 162 172 172 159 158 157 158 166 160 153 155 157 155 153 150 143 137 141 141 137 140 145 151 159 155 151 155 152 146 149 150 150 149 147 146 148 149 148 148 150 152 149 147 145 141 144 142 140 142 135 131 133 134 138 130 131 139
244 182 181 232 225 152 154 155 157 145 166 186 174 75 168 163 159 158 157 163 160 165 180 192 190 188 171 164 174 172 168 171 166 164 160 160 166 164 164 163 166 177 173 157 157 160 162 168 162 155 157 162 158 152 149 145 147 153 151 147 147 149 154 160 157 153 157 157 152 153 155 155 153 150 152 154 151 148 147 150 150 148 149 149 148 147 144 143 147 142 140 142 141 147 140 133 136
228 182 192 222 205 132 143 161 161 148 159 193 183 105 161 149 156 165 166 171 169 162 178 189 190 193 173 165 174 165 164 172 166 164 164 166 168 166 168 167 171 177 168 157 159 163 163 168 170 158 158 167 158 148 145 148 157 160 155 153 153 154 156 160 161 161 162 163 162 161 161 163 162 158 160 160 155 149 149 150 148 147 149 150 151 149 145 148 153 149 148 148 146 143 131 127 131
200 193 219 240 207 136 144 170 163 151 154 173 155 129 151 144 150 164 176 180 172 154 171 183 187 192 175 166 172 163 166 176 168 165 169 168 165 166 168 167 174 174 164 160 162 166 165 171 179 161 160 172 160 149 148 154 163 161 159 163 164 162 164 164 160 163 167 167 168 169 167 167 169 169 167 165 160 153 152 155 153 152 150 150 149 148 147 148 150 151 150 146 141 135 128 127 128
179 183 215 253 234 153 156 167 156 155 157 153 143 134 144 147 150 162 177 181 172 157 167 178 186 188 175 171 171 164 172 181 170 166 171 167 162 165 167 169 175 170 163 163 163 168 168 174 181 165 165 174 162 154 155 162 167 165 165 168 170 169 169 168 159 160 167 170 170 171 169 169 171 172 169 167 164 157 153 155 158 156 153 150 148 150 151 150 148 147 149 147 139 132 132 130 124
198 181 195 230 240 170 158 157 153 154 148 143 145 138 143 153 158 162 171 174 171 165 170 182 192 184 172 174 173 168 177 183 169 165 170 168 164 166 167 170 172 166 165 166 165 170 170 173 179 172 172 173 166 160 162 165 168 169 169 168 169 169 170 170 168 168 168 170 173 173 170 172 174 173 170 168 167 163 154 153 158 157 151 148 148 152 155 154 148 143 145 147 142 134 129 130 128
254 219 210 220 231 191 147 145 154 148 127 141 146 137 147 160 165 164 164 167 170 175 181 187 195 185 173 174 171 170 180 182 168 165 171 170 167 168 168 171 171 167 169 169 170 172 171 175 181 181 178 176 171 168 167 165 168 173 171 171 169 166 171 170 169 173 173 173 174 175 172 173 177 176 178 175 169 164 158 155 158 159 153 150 151 152 154 153 148 145 144 141 138 132 124 126 131
273 270 261 243 242 172 142 147 158 149 130 151 144 136 155 165 168 169 162 164 176 184 184 184 188 186 180 177 167 172 180 177 168 167 171 171 169 169 168 172 174 172 171 171 173 174 174 180 188 188 182 178 176 173 171 166 170 174 169 173 172 167 171 168 165 168 171 175 173 172 171 173 178 177 178 177 171 165 160 160 164 167 160 156 157 154 154 157 155 157 151 139 135 131 126 132 137
263 261 265 262 244 129 139 151 156 151 131 146 145 140 162 166 168 171 165 171 184 189 190 184 181 179 183 183 175 176 180 175 172 170 171 172 171 171 170 172 176 175 174 174 174 175 176 183 193 196 185 179 178 177 174 170 172 172 167 170 169 168 168 166 170 164 160 167 167 167 167 174 180 177 176 177 179 175 167 169 170 168 163 161 164 156 154 157 155 160 158 146 140 131 127 139 136
251 250 254 264 208 137 142 158 159 158 141 145 146 138 154 158 161 170 173 176 177 187 193 185 181 181 184 187 183 182 181 179 179 174 172 173 172 172 171 172 175 177 178 179 178 176 179 187 194 198 189 179 178 179 177 175 172 166 165 167 166 172 170 170 177 167 161 168 163 159 159 171 179 179 179 178 182 181 173 174 170 168 167 165 165 158 156 158 155 157 157 150 142 125 120 137 127
250 246 246 271 224 141 152 169 168 156 138 144 137 118 151 160 161 171 177 174 164 173 181 179 186 188 188 191 189 188 187 186 185 178 176 176 173 173 173 175 178 180 181 183 183 179 180 190 194 196 190 179 179 181 178 176 171 162 165 174 177 183 180 177 180 173 171 176 167 156 153 165 175 179 179 177 181 178 172 173 169 170 170 165 167 165 162 161 160 159 155 148 138 128 135 142 130
250 244 242 262 303 82 164 172 161 137 141 153 138 121 199 174 167 170 172 171 158 160 166 172 188 191 191 195 195 197 196 192 188 184 182 178 175 174 175 179 181 183 184 185 187 183 182 191 195 193 188 181 180 181 179 178 173 165 169 182 187 190 188 183 184 179 170 172 170 159 156 165 174 177 176 176 178 175 174 174 170 171 169 168 172 171 170 167 165 163 157 151 145 147 159 162 168
258 247 239 243 266 279 217 180 157 148 168 167 157 144 154 172 180 173 165 161 153 156 163 172 184 192 195 200 201 196 192 193 194 194 189 181 176 176 177 181 184 186 187 186 188 187 186 193 195 192 189 184 182 180 178 180 178 172 173 182 193 198 189 181 187 185 169 166 168 165 164 164 170 176 174 177 176 172 175 174 172 172 170 174 174 173 175 171 168 166 159 159 159 164 165 168 177
257 245 239 232 237 239 204 182 191 183 159 167 176 143 111 171 181 166 162 155 152 161 170 175 183 192 199 205 205 196 190 194 197 197 192 184 179 179 180 182 186 189 188 186 188 189 191 194 195 193 191 186 184 182 182 183 183 180 176 180 194 201 191 183 190 186 174 169 168 172 171 163 168 176 175 174 170 170 176 173 174 175 173 176 173 171 171 166 172 172 167 171 172 173 171 170 168
249 258 283 278 247 250 214 170 223 193 129 165 192 137 91 153 151 145 166 160 162 173 174 177 182 190 199 203 204 201 197 196 196 195 190 185 183 184 183 184 187 190 189 186 189 190 194 197 195 193 194 191 187 186 186 187 188 186 181 181 189 195 195 193 190 185 183 182 180 184 178 168 169 172 171 171 167 171 176 173 177 177 176 176 170 170 168 165 177 182 181 182 177 177 176 174 174
254 276 290 289 283 295 305 11 309 15 116 181 198 156 110 134 145 149 177 175 176 180 172 175 180 186 196 199 200 201 197 194 194 193 190 188 187 186 184 185 187 190 191 189 190 193 196 200 197 194 195 194 191 191 191 191 191 190 186 184 185 187 193 196 190 189 192 190 191 195 187 173 169 169 170 167 167 176 177 175 179 177 178 177 171 174 174 174 187 193 195 193 183 181 181 180 178
268 278 275 290 315 312 307 4 30 57 174 215 208 157 120 136 179 175 178 176 174 170 166 175 178 182 189 194 197 197 191 191 193 191 194 197 191 186 184 185 188 191 192 190 191 195 199 202 202 197 195 196 195 194 195 196 195 193 190 189 188 185 186 193 195 193 194 193 194 197 193 177 171 178 178 169 172 180 177 179 181 178 183 182 178 180 179 185 199 202 201 199 193 186 185 188 187
253 264 278 316 313 271 222 11 38 79 217 250 234 140 110 124 191 179 159 155 165 167 170 177 179 184 188 190 192 191 187 192 195 193 196 198 192 188 186 184 187 191 191 189 191 197 200 203 205 201 195 197 199 197 198 200 197 195 194 193 193 186 181 194 201 194 196 201 200 199 199 189 181 188 185 176 182 183 180 185 184 183 189 186 184 188 187 191 202 206 203 202 199 192 189 193 190
234 247 274 311 340 32 109 338 28 109 238 265 284 75 78 78 152 152 142 144 161 173 178 179 179 185 192 192 191 191 191 193 196 194 193 196 197 193 187 183 186 190 190 187 190 197 201 202 207 207 198 197 201 200 200 203 199 196 196 196 195 186 181 196 205 199 201 205 206 207 207 201 196 198 190 183 190 190 186 191 189 188 192 189 189 194 194 195 197 200 200 202 202 198 196 196 189
215 228 231 169 99 94 128 121 52 322 272 278 298 75 81 87 116 127 131 137 147 156 172 184 185 188 193 196 193 192 194 193 192 192 189 193 199 192 185 183 184 188 190 187 189 197 201 202 207 209 204 199 202 202 201 205 204 199 198 200 199 189 184 194 203 202 204 204 208 212 211 211 206 203 197 192 195 193 191 195 193 193 194 194 197 198 195 198 200 197 194 199 205 204 205 203 192
213 223 196 157 147 145 147 122 109 223 266 275 277 93 82 94 84 95 120 127 133 139 152 174 191 195 188 191 193 191 193 191 190 192 190 194 200 192 184 183 184 187 185 183 188 194 198 202 207 210 206 201 202 204 202 204 206 203 201 202 204 198 190 192 200 203 205 204 207 209 208 211 209 203 199 199 198 195 194 197 194 196 198 196 201 202 196 198 203 200 195 200 205 204 208 210 202
239 251 145 170 200 144 151 185 178 191 234 294 14 78 74 104 51 345 122 128 131 140 141 152 181 198 192 190 192 189 189 187 190 192 189 193 199 196 189 184 185 188 184 182 187 190 193 198 202 207 207 203 204 205 203 204 206 206 204 202 206 205 198 195 199 204 206 204 204 206 206 207 204 202 202 202 201 196 197 200 195 197 200 194 197 201 198 201 205 201 200 206 206 201 206 211 207
239 266 223 203 209 163 176 216 210 197 173 112 94 108 120 116 84 316 257 134 119 126 122 121 142 174 187 192 189 187 185 184 191 196 192 194 197 198 197 191 190 191 187 185 189 192 196 198 201 204 204 204 206 207 205 205 206 208 207 205 206 208 205 200 201 204 206 205 203 204 207 205 200 201 202 203 203 197 199 202 197 198 201 195 196 200 200 203 204 200 203 209 208 204 204 206 209
185 222 231 228 257 269 146 148 259 225 156 150 146 143 152 154 139 188 209 140 113 109 104 102 98 93 97 137 173 181 180 179 191 199 196 197 196 195 195 192 194 197 192 187 189 194 196 200 205 205 203 204 207 209 209 207 207 209 209 206 206 209 209 206 205 205 205 208 207 204 206 205 201 201 203 207 208 203 203 201 197 201 203 199 199 200 201 203 201 198 202 207 208 208 204 201 208
245 178 228 184 201 271 119 121 261 249 174 115 105 135 145 120 155 165 160 136 118 111 101 100 98 89 81 75 74 97 142 167 186 190 186 190 197 198 196 194 198 203 200 194 195 198 197 200 205 205 204 205 205 208 211 210 210 211 211 209 208 209 209 208 208 206 205 209 211 206 205 205 202 201 206 214 216 212 210 204 201 205 204 200 203 204 202 204 203 199 200 204 207 210 208 202 207
283 358 10 93 134 159 169 168 198 206 173 116 72 339 315 355 291 168 138 122 106 98 87 71 74 86 91 81 66 72 96 148 186 186 180 189 199 200 196 198 202 205 205 202 201 202 203 205 207 206 205 204 204 205 209 212 212 212 213 212 210 210 209 208 209 209 208 209 211 209 208 206 202 200 205 213 219 219 216 209 207 211 208 203 207 209 206 206 206 203 203 206 206 212 217 209 207
241 267 9 14 19 323 290 263 221 205 166 125 116 94 279 275 292 294 101 99 88 83 84 67 60 67 72 63 55 67 85 119 181 187 181 182 187 187 187 195 202 205 207 206 204 203 205 208 207 205 205 204 204 204 205 208 211 213 216 215 212 211 210 208 208 211 210 207 209 213 212 207 205 204 204 209 217 224 226 218 211 215 216 211 209 211 212 210 210 210 208 208 208 210 219 216 214
198 125 116 243 271 272 281 298 269 247 153 139 135 135 222 165 150 295 36 83 85 81 81 72 62 62 63 59 56 62 73 86 110 128 152 166 175 184 187 193 199 202 203 202 202 202 205 207 206 205 205 204 203 203 203 204 206 211 216 217 216 213 212 211 208 208 209 206 208 215 213 207 208 210 209 209 214 222 230 225 216 216 220 220 216 215 216 214 212 214 213 212 214 214 214 215 219